Lexington Weather

Lexington, Massachusetts, USA

27°F
12/12/2019 4:32pm 
  • Lexington Conditions: Partly cloudy
  • Temperature: 27.3°F / -2.6°CColder 1.6°F than last hour.
  • Dew Point: 19.8°FDecreased 0.3°Fsince last hour.
  • Relative Humidity: 73%Increased 4.0% since last hour.
  • Wind: Wind from WSW WSW 1 mph, 10-min avg: Calm, gust: 1 mph
  • Barometer: 30.66 in Steady
  • Visibility: 10 miles
  • Snow Today: 0.0 in
  •   

Regional Weather Roundup
for Boston / Norton, MA

        
000
ASUS41 KBOX 121610
RWRBOX

REGIONAL WEATHER ROUNDUP
NATIONAL WEATHER SERVICE BOSTON/NORTON MA
1100 AM EST THU DEC 12 2019

NOTE:  "FAIR" INDICATES FEW OR NO CLOUDS BELOW 12,000 FEET WITH NO 
SIGNIFICANT WEATHER AND/OR OBSTRUCTIONS TO VISIBILITY.

MAZALL-121700-
EASTERN MASSACHUSETTS
  
CITY           SKY/WX    TMP DP  RH WIND       PRES   REMARKS
BOSTON         PTSUNNY   31   9  39 W8        30.70F WCI  23          
BEVERLY        FAIR      27  10  49 NW12      30.68F WCI  17          
LAWRENCE       FAIR      26   9  48 NW7       30.70F WCI  18          
BEDFORD        FAIR      27   8  44 W7        30.68F WCI  19          
BLUE HILL        N/A     25  15  66 VRB5      30.65F WCI  19          
NORWOOD        FAIR      30  12  47 NW7       30.70F WCI  23          
MARSHFIELD     FAIR      30  14  51 NW8G15    30.70F WCI  23          
PLYMOUTH       FAIR      27  14  58 NW8       30.69F WCI  19          
TAUNTON        FAIR      29  13  51 VRB6      30.71S WCI  23          
NEW BEDFORD    FAIR      29  15  56 N8        30.70F WCI  21          
$$

MAZALL-121700-
CAPE COD AND THE ISLANDS
  
CITY           SKY/WX    TMP DP  RH WIND       PRES   REMARKS
FALMOUTH       SUNNY     27  14  59 N7G18     30.70F WCI  19          
HYANNIS        FAIR      31  15  52 N14       30.67F WCI  21          
CHATHAM        FAIR      31  18  58 NW8G18    30.69F WCI  23          
PROVINCETOWN   FAIR      32  17  54 NW17      30.69F WCI  21          
NANTUCKET      FAIR      33  21  61 N17G24    30.69F WCI  22          
MARTHAS VNYRD  FAIR      29  12  49 N14       30.69F WCI  18          
$$
 
MAZALL-121700-
CENTRAL AND WESTERN MASSACHUSETTS
  
CITY           SKY/WX    TMP DP  RH WIND       PRES   REMARKS
WORCESTER      FAIR      23  12  62 W8        30.63F WCI  14          
FITCHBURG      FAIR      26  10  50 NW12      30.68F WCI  16          
ORANGE         FAIR      26  10  50 NW9       30.68S WCI  17          
SPRINGFIELD    PTSUNNY   26  11  52 W3        30.69S                  
WESTFIELD      FAIR      27  12  53 NW6       30.70S WCI  20          
NORTH ADAMS    PTSUNNY   25  11  55 NW6       30.67S WCI  18          
PITTSFIELD     FAIR      22  10  60 VRB6      30.63R WCI  14          
$$
 
RIZALL-121700-
RHODE ISLAND
  
CITY           SKY/WX    TMP DP  RH WIND       PRES   REMARKS
PROVIDENCE     PTSUNNY   29  14  53 NW12      30.72F WCI  19          
NEWPORT        FAIR      29  13  51 N12       30.70F WCI  19          
BLOCK ISLAND   FAIR      30  17  58 VRB7      30.72S WCI  23          
SMITHFIELD     FAIR      28  14  55 N9        30.69F WCI  19          
WESTERLY       FAIR      31  12  45 N8        30.72F WCI  23          
$$
 
CTZALL-121700-
CONNECTICUT
  
CITY           SKY/WX    TMP DP  RH WIND       PRES   REMARKS
BRADLEY INTL   PTSUNNY   27  14  58 CALM      30.72R                  
HARTFORD       FAIR      29  12  49 CALM      30.74S                  
BRIDGEPORT     FAIR      31  12  45 N9        30.74S WCI  23          
DANBURY        FAIR      27  12  53 CALM      30.72S                  
GROTON         FAIR      30  14  51 N12       30.71F WCI  20          
NEW HAVEN      PTSUNNY   32  12  43 VRB6      30.72F WCI  26          
CHESTER        FAIR      30  12  47 N8        30.70F WCI  23          
MERIDEN        FAIR      29  11  47 N6        30.73S WCI  23          
WILLIMANTIC    FAIR      27  14  58 VRB5      30.72S WCI  22          
OXFORD         FAIR      28  14  55 VRB5      30.69S WCI  23          
$$

MEZ002-015-021-024-NHZ003-005-008-011-012-014-VTZ005-008-121700-
NORTHERN NEW ENGLAND
  
CITY           SKY/WX    TMP DP  RH WIND       PRES   REMARKS
PORTLAND ME    FAIR      29   8  41 NW12      30.64F WCI  19          
BANGOR ME      FAIR      23   1  38 W13G21    30.59F WCI  11          
CONCORD NH     FAIR      27   6  41 W15       30.65F WCI  15          
MANCHESTER NH  PTSUNNY   27   6  41 VRB6      30.66F WCI  20          
NASHUA NH      FAIR      27  10  49 NW9       30.69F WCI  18          
PORTSMOUTH NH  PTSUNNY   27   7  42 W8        30.64F WCI  19          
JAFFREY NH     FAIR      23   7  50 NW8       30.62F WCI  14          
KEENE NH       FAIR      26   9  48 NW6       30.67F WCI  19          
BURLINGTON VT  PTSUNNY   24   8  50 NW8       30.68R WCI  15          
MT. WASHINGTON FOG       -4  -4 100 W62G76      N/A  VSB 1/16WCI -39  
$$

NYZ052-076-121700-
EASTERN NEW YORK
  
CITY           SKY/WX    TMP DP  RH WIND       PRES   REMARKS
ALBANY         FAIR      28  11  48 W3        30.73R                  
NEW YORK CITY  PTSUNNY   32   5  32 N13       30.73F WCI  22          
$$
 
ANZALL-121700-
MARINE OBSERVATIONS
  
STATION/POSITION TIME  TEMP    WIND        PRES    VSBY  WAVE
                       AIR SEA DIR/SP/G                  HT/PER
                 (UTC) (F)     (DEG/KT/KT) (MB)    (MI)  (FT/S)
BOSTON BUOY      1550   29 46  310/ 14/ 19 1038.5F         2/ 3
BUZZARDS BAY     1500   28     350/ 17/ 19 1040.5R
NANTUCKET SOUND  1540   28 42              1040.1
MASS BAY-STELLWA 1504   27 46  320/ 14/ 17 1038.0R  1 7/8  2/ 4
ISLE OF SHOALS   1500   25     260/ 13/ 16 1038.8R
S OF BLOCK IS    1600      52                N/A           4/ 6
$$

......................KEY.........................
  SKY/WX - SKY CONDITION/PRESENT WEATHER
  TMP    - TEMPERATURE IN FAHRENHEIT
  DWPT   - DEWPOINT IN FAHRENHEIT
  RH     - RELATIVE HUMIDITY IN PERCENT
  WIND   - DIRECTION AND SPEED IN MPH
  PRES   - MEAN SEA LEVEL PRESSURE IN INCHES OF HG
  WCI    - WIND CHILL INDEX
  VSB    - VISIBILITY IN MILES
  HX     - HEAT INDEX
  TC     - TEMPERATURE IN CELSIUS
  VRB    - VARIABLE WIND DIRECTION
  N/A    - NOT AVAILABLE
  
      

Other recent Regional Weather Roundups

Thu Dec 12, 4:10pm

Thu Dec 12, 4:01pm

Thu Dec 12, 3:10pm

Thu Dec 12, 3:00pm

Thu Dec 12, 2:10pm

Thu Dec 12, 2:01pm

Thu Dec 12, 1:10pm

Thu Dec 12, 1:00pm

Thu Dec 12, 12:10pm

Thu Dec 12, 12:00pm

Thu Dec 12, 11:00am

Thu Dec 12, 10:10am

Thu Dec 12, 8:10am

Thu Dec 12, 8:00am

Thu Dec 12, 7:10am

Thu Dec 12, 7:00am

Thu Dec 12, 6:10am

Thu Dec 12, 6:00am

Thu Dec 12, 5:10am

Thu Dec 12, 5:00am

Thu Dec 12, 4:10am

Thu Dec 12, 4:00am

Thu Dec 12, 3:10am

Thu Dec 12, 3:00am

Thu Dec 12, 2:10am

Thu Dec 12, 2:00am

Thu Dec 12, 1:10am

Thu Dec 12, 1:00am

Thu Dec 12, 12:10am

Thu Dec 12, 12:00am

Wed Dec 11, 11:10pm

Wed Dec 11, 11:00pm

Wed Dec 11, 10:10pm

Wed Dec 11, 10:00pm

Wed Dec 11, 9:10pm

Wed Dec 11, 9:00pm

Wed Dec 11, 8:10pm

Wed Dec 11, 8:00pm

Wed Dec 11, 7:10pm

Wed Dec 11, 7:00pm

Wed Dec 11, 6:10pm

Wed Dec 11, 6:00pm

Wed Dec 11, 5:10pm

Wed Dec 11, 5:01pm

Wed Dec 11, 4:10pm

Wed Dec 11, 4:00pm

Wed Dec 11, 3:10pm

Wed Dec 11, 3:01pm

Wed Dec 11, 2:10pm

Wed Dec 11, 2:00pm

Wed Dec 11, 1:10pm

Wed Dec 11, 1:00pm

Wed Dec 11, 12:10pm

Wed Dec 11, 12:00pm

Wed Dec 11, 11:10am

Wed Dec 11, 11:00am

Wed Dec 11, 10:10am

Wed Dec 11, 10:00am

Wed Dec 11, 9:10am

Wed Dec 11, 9:00am

Wed Dec 11, 8:10am

Wed Dec 11, 8:00am

Wed Dec 11, 7:10am

Wed Dec 11, 7:00am

Wed Dec 11, 6:10am

Wed Dec 11, 6:00am

Wed Dec 11, 5:10am

Wed Dec 11, 5:00am

Wed Dec 11, 4:10am

Wed Dec 11, 4:00am

Wed Dec 11, 3:10am

Wed Dec 11, 3:01am

Wed Dec 11, 2:10am

Wed Dec 11, 2:01am

Wed Dec 11, 1:10am

Wed Dec 11, 1:00am

Wed Dec 11, 12:10am

Wed Dec 11, 12:00am

Tue Dec 10, 11:10pm

Tue Dec 10, 11:00pm

Tue Dec 10, 10:10pm

Tue Dec 10, 10:00pm

Tue Dec 10, 9:10pm

Tue Dec 10, 9:01pm

Tue Dec 10, 8:10pm

Tue Dec 10, 8:00pm

Tue Dec 10, 7:10pm

Tue Dec 10, 7:01pm

Tue Dec 10, 6:10pm

Tue Dec 10, 6:01pm

Tue Dec 10, 5:10pm

Tue Dec 10, 5:00pm

Tue Dec 10, 4:10pm

Tue Dec 10, 4:01pm

Tue Dec 10, 3:10pm

Tue Dec 10, 3:01pm

Tue Dec 10, 2:10pm

Tue Dec 10, 2:01pm

Tue Dec 10, 1:10pm

Tue Dec 10, 1:00pm

Tue Dec 10, 12:10pm

Tue Dec 10, 12:00pm

Tue Dec 10, 11:10am

Tue Dec 10, 11:00am

Tue Dec 10, 10:10am

Tue Dec 10, 10:00am

Tue Dec 10, 9:10am

Tue Dec 10, 9:01am

Tue Dec 10, 8:10am

Tue Dec 10, 8:00am

Tue Dec 10, 7:10am

Tue Dec 10, 7:00am

Tue Dec 10, 6:10am

Tue Dec 10, 6:00am

Tue Dec 10, 5:10am

Tue Dec 10, 5:00am

Tue Dec 10, 4:10am

Tue Dec 10, 4:00am

Tue Dec 10, 3:10am

Tue Dec 10, 3:00am

Tue Dec 10, 2:10am

Tue Dec 10, 2:01am

Tue Dec 10, 1:10am

Tue Dec 10, 1:00am

Tue Dec 10, 12:10am

Tue Dec 10, 12:01am

Mon Dec 9, 11:10pm

Mon Dec 9, 11:01pm

Mon Dec 9, 10:10pm

Mon Dec 9, 10:00pm

Mon Dec 9, 9:10pm

Mon Dec 9, 9:01pm

Mon Dec 9, 8:10pm

Mon Dec 9, 8:01pm

Mon Dec 9, 7:10pm

Mon Dec 9, 7:00pm

Mon Dec 9, 6:10pm

Mon Dec 9, 6:00pm

Mon Dec 9, 5:10pm

Mon Dec 9, 5:01pm

Meta data:

ID: 534f9768-9df4-4d96-87a5-6c6d2d854861
Link: https://api.weather.gov/products/534f9768-9df4-4d96-87a5-6c6d2d854861